Location: Bottenau
(48.5138°N, 8.0462°E)
Time: 08:52:06
(UTC+00:00)

ATLAS 3B R/B - Pass Details

Date: 18 April 2021
Orbit: 1006 x 1189 km, 63.8° (Epoch: 21 April)

Event Time Altitude Azimuth Distance (km) Brightness Sun altitude
Rises 18:48:46 0° 318° (NW) 3,858 7.0 -4.7°
Reaches altitude 10° 18:51:25 10° 323° (NW) 2,926 6.1 -5.1°
Maximum altitude 18:58:18 60° 43° (NE) 1,267 3.1 -6.2°
Drops below altitude 10° 19:05:28 10° 122° (ESE) 3,044 4.4 -7.3°
Enters shadow 19:05:56 - 123° (ESE) 3,201 4.5 -7.3°
